Time,TemperatureF,DewpointF,PressureIn,WindDirection,WindDirectionDegrees,WindSpeedMPH,WindSpeedGustMPH,Humidity,HourlyPrecipIn,Conditions,Clouds,dailyrainin,SoftwareType,DateUTC
2013-05-24 02:01:00,54.3,54.0,29.79,SSW,202,2.7,-999.0,99,-99.99,,,0.17,Acu-Link.com,2013-05-24 06:01:00,
2013-05-24 02:16:00,53.6,53.3,29.79,WNW,292,8.9,-999.0,99,-99.99,,,0.17,Acu-Link.com,2013-05-24 06:16:00,
2013-05-24 02:38:00,50.4,50.1,29.80,WNW,292,4.2,-999.0,99,-99.99,,,0.17,Acu-Link.com,2013-05-24 06:38:00,
2013-05-24 02:55:00,50.0,49.7,29.80,NNE,22,5.3,-999.0,99,-99.99,,,0.17,Acu-Link.com,2013-05-24 06:55:00,
2013-05-24 03:12:00,50.0,49.7,29.81,West,270,6.8,-999.0,99,-99.99,,,0.17,Acu-Link.com,2013-05-24 07:12:00,
2013-05-24 03:29:00,45.0,44.7,29.82,North,0,6.8,-999.0,99,-99.99,,,0.17,Acu-Link.com,2013-05-24 07:29:00,
2013-05-24 03:48:00,44.4,44.1,29.81,NW,315,6.3,-999.0,99,-99.99,,,0.17,Acu-Link.com,2013-05-24 07:48:00,
2013-05-24 04:11:00,44.2,43.9,29.82,NNE,22,4.2,-999.0,99,-99.99,,,0.17,Acu-Link.com,2013-05-24 08:11:00,
2013-05-24 04:28:00,43.9,43.6,29.83,NW,315,9.4,-999.0,99,-99.99,,,0.17,Acu-Link.com,2013-05-24 08:28:00,
2013-05-24 04:43:00,43.7,43.4,29.83,NW,315,9.9,-999.0,99,-99.99,,,0.17,Acu-Link.com,2013-05-24 08:43:00,
2013-05-24 05:03:00,43.3,43.0,29.84,North,0,5.3,-999.0,99,-99.99,,,0.17,Acu-Link.com,2013-05-24 09:03:00,
2013-05-24 05:18:00,41.7,41.4,29.84,WNW,292,8.3,-999.0,99,-99.99,,,0.17,Acu-Link.com,2013-05-24 09:18:00,
2013-05-24 05:48:00,41.2,40.9,29.87,NE,45,5.8,-999.0,99,-99.99,,,0.17,Acu-Link.com,2013-05-24 09:48:00,
2013-05-24 06:05:00,40.6,40.3,29.88,West,270,11.4,-999.0,99,-99.99,,,0.17,Acu-Link.com,2013-05-24 10:05:00,
2013-05-24 06:21:00,40.6,40.3,29.88,West,270,5.8,-999.0,99,-99.99,,,0.17,Acu-Link.com,2013-05-24 10:21:00,
2013-05-24 06:37:00,40.3,40.0,29.90,NNE,22,5.8,-999.0,99,-99.99,,,0.17,Acu-Link.com,2013-05-24 10:37:00,
2013-05-24 06:53:00,40.1,39.8,29.90,WNW,292,10.4,-999.0,99,-99.99,,,0.17,Acu-Link.com,2013-05-24 10:53:00,
2013-05-24 07:10:00,39.7,39.4,29.91,WNW,292,9.9,-999.0,99,-99.99,,,0.17,Acu-Link.com,2013-05-24 11:10:00,
2013-05-24 07:31:00,39.0,38.7,29.93,North,0,9.4,-999.0,99,-99.99,,,0.17,Acu-Link.com,2013-05-24 11:31:00,
2013-05-24 07:50:00,39.4,39.1,29.93,West,270,6.8,-999.0,99,-99.99,,,0.17,Acu-Link.com,2013-05-24 11:50:00,
2013-05-24 08:05:00,40.5,40.2,29.93,WNW,292,8.3,-999.0,99,-99.99,,,0.17,Acu-Link.com,2013-05-24 12:05:00,
2013-05-24 08:21:00,41.0,40.7,29.93,NNW,337,7.3,-999.0,99,-99.99,,,0.17,Acu-Link.com,2013-05-24 12:21:00,
2013-05-24 08:36:00,40.6,40.3,29.94,WSW,247,3.2,-999.0,99,-99.99,,,0.17,Acu-Link.com,2013-05-24 12:36:00,
2013-05-24 08:52:00,40.3,40.0,29.96,SSW,202,5.3,-999.0,99,-99.99,,,0.17,Acu-Link.com,2013-05-24 12:52:00,
2013-05-24 09:07:00,40.6,40.3,29.96,West,270,6.3,-999.0,99,-99.99,,,0.17,Acu-Link.com,2013-05-24 13:07:00,
2013-05-24 09:22:00,40.1,39.8,29.96,West,270,6.3,-999.0,99,-99.99,,,0.17,Acu-Link.com,2013-05-24 13:22:00,
2013-05-24 09:38:00,39.6,39.3,29.98,SW,225,5.3,-999.0,99,-99.99,,,0.17,Acu-Link.com,2013-05-24 13:38:00,
2013-05-24 09:53:00,39.7,39.4,29.99,SE,135,4.2,-999.0,99,-99.99,,,0.17,Acu-Link.com,2013-05-24 13:53:00,
2013-05-24 10:08:00,39.4,39.1,29.99,East,90,13.0,-999.0,99,-99.99,,,0.17,Acu-Link.com,2013-05-24 14:08:00,
2013-05-24 10:24:00,39.0,38.7,29.99,NNW,337,4.7,-999.0,99,-99.99,,,0.17,Acu-Link.com,2013-05-24 14:24:00,
2013-05-24 10:39:00,38.7,38.4,30.00,WNW,292,5.3,-999.0,99,-99.99,,,0.17,Acu-Link.com,2013-05-24 14:39:00,
2013-05-24 10:54:00,39.0,38.7,30.00,WSW,247,7.8,-999.0,99,-99.99,,,0.17,Acu-Link.com,2013-05-24 14:54:00,
2013-05-24 11:09:00,38.3,38.0,30.01,WSW,247,7.3,-999.0,99,-99.99,,,0.17,Acu-Link.com,2013-05-24 15:09:00,
2013-05-24 11:24:00,37.9,37.6,30.01,West,270,6.3,-999.0,99,-99.99,,,0.17,Acu-Link.com,2013-05-24 15:24:00,
2013-05-24 11:40:00,38.5,38.2,30.03,NW,315,10.9,-999.0,99,-99.99,,,0.17,Acu-Link.com,2013-05-24 15:40:00,
2013-05-24 11:55:00,38.1,37.8,30.03,West,270,7.3,-999.0,99,-99.99,,,0.17,Acu-Link.com,2013-05-24 15:55:00,
2013-05-24 12:10:00,38.5,38.2,30.04,North,0,4.2,-999.0,99,-99.99,,,0.17,Acu-Link.com,2013-05-24 16:10:00,
2013-05-24 12:25:00,38.5,38.2,30.04,West,270,9.9,-999.0,99,-99.99,,,0.17,Acu-Link.com,2013-05-24 16:25:00,
2013-05-24 12:40:00,38.7,38.4,30.05,West,270,5.8,-999.0,99,-99.99,,,0.17,Acu-Link.com,2013-05-24 16:40:00,
2013-05-24 12:56:00,39.2,38.9,30.06,West,270,7.8,-999.0,99,-99.99,,,0.17,Acu-Link.com,2013-05-24 16:56:00,
2013-05-24 13:11:00,40.8,40.3,30.05,ESE,112,7.8,-999.0,98,-99.99,,,0.17,Acu-Link.com,2013-05-24 17:11:00,
2013-05-24 13:28:00,40.1,39.1,30.06,West,270,5.3,-999.0,96,-99.99,,,0.17,Acu-Link.com,2013-05-24 17:28:00,
2013-05-24 13:43:00,42.4,40.8,30.06,SSE,157,4.2,-999.0,94,-99.99,,,0.17,Acu-Link.com,2013-05-24 17:43:00,
2013-05-24 13:59:00,41.7,39.3,30.05,West,270,10.4,-999.0,91,-99.99,,,0.17,Acu-Link.com,2013-05-24 17:59:00,
2013-05-24 14:14:00,42.1,37.9,30.03,NW,315,4.2,-999.0,85,-99.99,,,0.17,Acu-Link.com,2013-05-24 18:14:00,
2013-05-24 14:29:00,42.1,38.5,30.00,NW,315,6.8,-999.0,87,-99.99,,,0.17,Acu-Link.com,2013-05-24 18:29:00,
2013-05-24 14:45:00,41.7,38.7,30.00,West,270,6.3,-999.0,89,-99.99,,,0.17,Acu-Link.com,2013-05-24 18:45:00,
2013-05-24 15:00:00,41.0,37.7,30.01,West,270,8.3,-999.0,88,-99.99,,,0.17,Acu-Link.com,2013-05-24 19:00:00,
2013-05-24 15:15:00,42.3,38.1,30.00,West,270,8.9,-999.0,85,-99.99,,,0.17,Acu-Link.com,2013-05-24 19:15:00,
2013-05-24 15:31:00,42.8,38.3,30.00,West,270,8.9,-999.0,84,-99.99,,,0.17,Acu-Link.com,2013-05-24 19:31:00,
2013-05-24 15:46:00,42.3,38.1,30.01,SSW,202,4.7,-999.0,85,-99.99,,,0.17,Acu-Link.com,2013-05-24 19:46:00,
2013-05-24 16:01:00,42.6,36.9,30.01,West,270,5.8,-999.0,80,-99.99,,,0.17,Acu-Link.com,2013-05-24 20:01:00,
2013-05-24 16:16:00,42.1,37.3,30.01,West,270,5.3,-999.0,83,-99.99,,,0.17,Acu-Link.com,2013-05-24 20:16:00,
2013-05-24 16:32:00,43.7,38.6,30.02,SW,225,7.3,-999.0,82,-99.99,,,0.17,Acu-Link.com,2013-05-24 20:32:00,
2013-05-24 16:48:00,43.3,37.2,30.01,NNW,337,5.3,-999.0,79,-99.99,,,0.17,Acu-Link.com,2013-05-24 20:48:00,
2013-05-24 17:36:00,44.6,37.2,30.01,WSW,247,7.3,-999.0,75,-99.99,,,0.17,Acu-Link.com,2013-05-24 21:36:00,
2013-05-24 19:45:00,40.1,34.1,30.12,WSW,247,7.8,-999.0,79,-99.99,,,0.17,Acu-Link.com,2013-05-24 23:45:00,
2013-05-24 20:00:00,39.2,33.9,30.12,NW,315,6.8,-999.0,81,-99.99,,,0.17,Acu-Link.com,2013-05-25 00:00:00,
2013-05-24 20:17:00,39.0,34.3,30.13,West,270,5.8,-999.0,83,-99.99,,,0.17,Acu-Link.com,2013-05-25 00:17:00,
2013-05-24 20:32:00,38.5,33.2,30.13,West,270,6.8,-999.0,81,-99.99,,,0.17,Acu-Link.com,2013-05-25 00:32:00,
2013-05-24 20:48:00,38.1,33.4,30.13,West,270,5.3,-999.0,83,-99.99,,,0.17,Acu-Link.com,2013-05-25 00:48:00,
2013-05-24 21:04:00,37.9,33.2,30.14,North,0,5.8,-999.0,83,-99.99,,,0.17,Acu-Link.com,2013-05-25 01:04:00,
2013-05-24 21:19:00,37.6,33.5,30.14,WNW,292,6.3,-999.0,85,-99.99,,,0.17,Acu-Link.com,2013-05-25 01:19:00,
2013-05-24 21:34:00,37.4,33.6,30.15,West,270,5.3,-999.0,86,-99.99,,,0.17,Acu-Link.com,2013-05-25 01:34:00,
2013-05-24 21:50:00,37.6,33.8,30.15,North,0,5.3,-999.0,86,-99.99,,,0.17,Acu-Link.com,2013-05-25 01:50:00,
2013-05-24 22:05:00,37.4,33.9,30.16,SSW,202,6.8,-999.0,87,-99.99,,,0.17,Acu-Link.com,2013-05-25 02:05:00,
2013-05-24 22:21:00,37.4,33.3,30.16,SW,225,5.3,-999.0,85,-99.99,,,0.17,Acu-Link.com,2013-05-25 02:21:00,
2013-05-24 22:39:00,37.2,34.3,30.17,West,270,3.7,-999.0,89,-99.99,,,0.17,Acu-Link.com,2013-05-25 02:39:00,
2013-05-24 22:54:00,37.0,34.1,30.16,North,0,5.3,-999.0,89,-99.99,,,0.17,Acu-Link.com,2013-05-25 02:54:00,
2013-05-24 23:10:00,36.7,33.5,30.16,SW,225,5.3,-999.0,88,-99.99,,,0.17,Acu-Link.com,2013-05-25 03:10:00,
2013-05-24 23:26:00,36.7,33.5,30.16,West,270,3.2,-999.0,88,-99.99,,,0.17,Acu-Link.com,2013-05-25 03:26:00,
2013-05-24 23:44:00,36.3,32.5,30.16,WNW,292,5.8,-999.0,86,-99.99,,,0.17,Acu-Link.com,2013-05-25 03:44:00,
2013-05-24 23:59:00,36.3,32.2,30.16,NNW,337,4.2,-999.0,85,-99.99,,,0.17,Acu-Link.com,2013-05-25 03:59:00,